Regional Weather Roundup
Issued by NWS

Home | Current Version | Previous Version | Graphics & Text | Print | Product List | Glossary On
Versions: 1 2 3 4 5 6 7 8 9 10 11 12 13 14 15 16 17 18 19 20 21 22 23 24 25 26 27 28 29 30 31 32 33 34 35 36 37 38 39 40 41 42 43 44 45 46 47 48 49 50
000
ASUS43 KLOT 262108
RWRIL

ILLINOIS REGIONAL WEATHER ROUNDUP
NATIONAL WEATHER SERVICE CHICAGO/ROMEOVILLE IL
400 PM CDT SUN APR 26 2015

NOTE: "FAIR" INDICATES FEW OR NO CLOUDS BELOW 12,000 FEET WITH NO
SIGNIFICANT WEATHER AND/OR OBSTRUCTIONS TO VISIBILITY.

* THESE STATIONS ARE NOT UNDER NWS QUALITY CONTROL. THEY ALSO MAY NOT
  REPORT WEATHER SUCH AS PRECIPITATION OR FOG.

ILZ001-002-007-009-015-016-024-262200-
NORTHWEST ILLINOIS

CITY           SKY/WX    TMP DP  RH WIND       PRES   REMARKS
MOLINE         SUNNY     60  31  33 N3        30.00F
STERLING*      SUNNY     61  36  39 NE9       30.01F
SAVANNA*       SUNNY     60  28  29 N6        30.01F
$$

ILZ003-004-008-010-011-017-018-262200-
NORTH CENTRAL ILLINOIS

CITY           SKY/WX    TMP DP  RH WIND       PRES   REMARKS
ROCKFORD       MOSUNNY   60  29  30 NE13G23   30.02F
FREEPORT*      SUNNY     58  30  35 N10G18    30.03F
ROCHELLE*      SUNNY     57  33  39 N13G22    30.00F
DE KALB*       MOSUNNY   57  31  37 NE12G17   29.99F
PERU*          MOSUNNY   58  34  40 N12       30.00F
$$

ILZ005-006-012>014-019>023-262200-
NORTHEAST ILLINOIS

CITY           SKY/WX    TMP DP  RH WIND       PRES   REMARKS
CHICAGO-OHARE  MOSUNNY   55  26  32 NE18G28   30.00F
CHICAGO-MIDWAY MOSUNNY   56  27  32 NE16G24   30.01S
AURORA         SUNNY     59  29  31 NE9G20    29.99F
LANSING*       SUNNY     49  27  42 N15G21    30.00F
JOLIET*        SUNNY     58  30  33 NE13G21   29.99S
WAUKEGAN       SUNNY     51  27  39 N17       30.01F
DUPAGE AIRPORT SUNNY     57  28  33 NE9G20    29.98F
KANKAKEE*      SUNNY     56  31  39 N18G24    29.99S
WHEELING       SUNNY     53  26  35 NE17G23   30.03S
MORRIS*        MOSUNNY   58  32  38 N7        29.96F
ROMEOVILLE*    SUNNY     56  29  35 NE20      29.99S
NORTHERLY ISL    N/A     47  31  54 NW14        N/A
$$

LMZ740>746-262200-
SOUTHERN LAKE MICHIGAN

STATION/POSITION SKY/WX   TEMP    WIND        PRES    VSBY  WAVE
                          AIR SEA DIR/SP/G                  HT/PER
                          (F)     (DEG/KT/KT) (MB)    (MI)  (FT/S)
HARRISON CRIB              40     350/ 15/ 18   N/A
BURNHAM HARBOR             47     350/ 14/ 16   N/A
CALUMET HARBOR             45     340/ 16/ 19   N/A
BURNS HARBOR               40     350/ 10/ 13 1016.9S
MICHIGAN CITY              41     340/ 13/ 15   N/A
MICHIGAN CITY 6N           40 45  360/ 16/ 19   N/A           4/ 4
$$

ILZ025>027-034>036-040-047-049-050-058-095>099-262200-
WEST-CENTRAL ILLINOIS

CITY           SKY/WX    TMP DP  RH WIND       PRES   REMARKS
QUINCY         SUNNY     61  34  36 NE17      29.97F
GALESBURG*     SUNNY     58  35  41 NE10G20   30.00F
MACOMB*        SUNNY     60  35  39 NE13G23   30.01F
JACKSONVILLE*  SUNNY     62  36  38 N14       29.96F
PITTSFIELD*    SUNNY     61  33  34 N9G18     29.96F
$$

ILZ028>032-037-038-041>044-048-051>054-059>061-262200-
CENTRAL ILLINOIS

CITY           SKY/WX    TMP DP  RH WIND       PRES   REMARKS
PONTIAC        MOSUNNY   59  33  38 N14G23    29.99F
BLOOMINGTON    SUNNY     58  36  43 NE16G25   29.98F
DECATUR        MOSUNNY   60  39  45 NE17G24   29.95F
PEORIA         SUNNY     61  34  36 NE13G20   29.99F
LACON*         MOSUNNY   58  35  42 NE6       29.99F
LINCOLN*       MOSUNNY   58  39  48 N16G23    29.96F
SPRINGFIELD    SUNNY     60  38  43 N17       29.96F
TAYLORVILLE    SUNNY     59  34  38 NE16G23   29.95S
$$

ILZ033-039-045-046-055>057-062-063-262200-
EAST-CENTRAL ILLINOIS

CITY           SKY/WX    TMP DP  RH WIND       PRES   REMARKS
CHAMPAIGN      MOSUNNY   59  38  45 N15G25    29.94F
DANVILLE*      PTSUNNY   56  37  49 N17G24    29.91F
RANTOUL*       SUNNY     58  35  41 NE21      29.95S
MATTOON        MOSUNNY   58  38  47 N18G25    29.92S
PARIS*         MOSUNNY   57  38  49 N10G18    29.92F
$$

ILZ079-100>102-262200-
SOUTHWEST ILLINOIS

CITY           SKY/WX    TMP DP  RH WIND       PRES   REMARKS
BELLEVILLE     SUNNY     62  42  47 N15       29.91F
CAHOKIA*       SUNNY     62  38  40 NE13G21   29.93S
SPARTA*        SUNNY     60  39  45 NE12G17   29.92F
$$

ILZ064>066-069>071-074>076-080>082-084>086-088>090-092>094-262200-
SOUTH-CENTRAL ILLINOIS

CITY           SKY/WX    TMP DP  RH WIND       PRES   REMARKS
CARBONDALE     SUNNY     64  34  32 NE13      29.88F
CAIRO*         PTSUNNY   64  46  51 NE10      29.86F
EFFINGHAM*     SUNNY     59  33  36 N13       29.93F
MARION         MOSUNNY   64  36  34 N12       29.89F
MT. VERNON     SUNNY     61  37  41 N5        29.90F
CENTRALIA*     SUNNY     64  34  32 NE6       29.91F
SALEM*         SUNNY     62  35  36 NE13      29.91F
METROPOLIS*    SUNNY     64  44  48 NE7       29.85F
$$

ILZ067-068-072-073-078-083-087-091-262200-
SOUTHEAST ILLINOIS

CITY           SKY/WX    TMP DP  RH WIND       PRES   REMARKS
LAWRENCEVILLE  SUNNY     62  37  39 N10G22    29.89F
FLORA*         SUNNY     60  36  40 N10G20    29.91S
FAIRFIELD*     SUNNY     61  35  37 N10G18    29.88F
HARRISBURG*    SUNNY     62  37  39 N10       29.89S
ROBINSON*      SUNNY     61  35  37 N12       29.90S
CARMI*         SUNNY     63  29  28 N14       29.87F
$$

ABBREVIATIONS USED IN REMARKS
   TC - TEMPERATURE IN CELSIUS
  WCI - WIND CHILL INDEX
   HX - HEAT INDEX
  VSB - VISIBILITY
$$




USA.gov is the U.S. government's official web portal to all federal, state and local government web resources and services.